SES-7 (PROTOSTAR 2)

Last updated on Thu Nov 21 2024 00:02:41 GMT+0000 (Coordinated Universal Time)

1 34941U 09027A 24324.82792583 -.00000344 00000+0 00000+0 0 9998 2 34941 0.0865 81.6685 0002344 179.5611 204.4241 1.00270179 56879
UTC large
Height (km)
Speed (km/s)
/
Latitude / Longitude
Inclination (degrees)
Orbital Period (minutes)
Azimuth
Elevation
Range (km)
Doppler Factor

Next 0 passes for location: London (51.5072 / 0.1276)

Sorry there are no passes over London.